Вернуться в каталог

COSMOS 252 DEB

АктивенLEO
NORAD 18490·DEBRIS·🇷🇺 Russia

Запущен Nov 1, 1968 с Baikonur Cosmodrome

Loading…

Ближайшие Пролёты (ближайшие 24 часа)

TLE

СвежийSource: Space-Track

Эпоха: Sep 14, 2026, 12:44 UTC

1 18490U 68097EN  26257.53097643  .00006506  00000-0  97157-3 0  9990
2 18490  62.7361 249.2989 0426279   4.2424 356.2067 14.28929074725186

Отслеживайте COSMOS 252 DEB в реальном времени с AllMySat

Download on the App Store